This demonstration page uses our WeatherBlox Daily Observations layout. Learn more.

38.88101, -77.10428

Hourly Observations for October 8, 2017

Temp ( °F °C ) Dew Point ( °F °C ) Humidity (%) Winds ( mph kmh ) Pressure ( in mb ) Visibility ( mi km ) Precip ( " mm )
12:52 am 00:52 Cloudy 76 24.4 73 22.8 91 91 S 13 20 29.98 1015 10 16.0934 0 0.0254
1:52 am 01:52 Cloudy 76 24.4 73 22.8 91 91 S 14 22 29.98 1015 10 16.0934 0 0
2:52 am 02:52 Mostly Cloudy 76 24.4 73 22.8 91 91 S 14 22 29.95 1014 10 16.0934 0 0
3:52 am 03:52 Cloudy 76 24.4 73 22.8 91 91 S 14 22 29.95 1014 10 16.0934 0 0
4:27 am 04:27 Cloudy 76 24.4 73 22.8 91 91 S 14 22 29.94 1014 10 16.0934 0 0
4:52 am 04:52 Cloudy with Light Rain 75 23.9 74 23.3 96 96 S 15 24 29.94 1014 9 14.48406 0 0.0254
5:39 am 05:39 Cloudy 75 23.9 74 23.3 96 96 S 16 26 29.94 1014 10 16.0934 0 0.0254
5:52 am 05:52 Cloudy with Light Rain 75 23.9 74 23.3 96 96 S 9 15 29.94 1014 10 16.0934 0 0.0254
6:02 am 06:02 Cloudy 76 24.4 74 23.3 94 94 S 16 26 29.94 1014 10 16.0934 0 0.0254
6:52 am 06:52 Cloudy 76 24.4 74 23.3 94 94 S 13 20 29.95 1014 10 16.0934 0 0.0254
7:52 am 07:52 Cloudy 76 24.4 74 23.3 94 94 SW 9 15 29.97 1015 10 16.0934 0 0.0254
8:22 am 08:22 Cloudy with Light Rain 76 24.4 74 23.3 94 94 SSW 7 11 29.97 1015 10 16.0934 0 0.0254
8:43 am 08:43 Cloudy with Light Rain 76 24.4 75 23.9 97 97 S 7 11 29.97 1015 9 14.48406 0 0.0254
8:52 am 08:52 Cloudy with Light Rain 76 24.4 75 23.9 97 97 S 8 13 29.97 1015 9 14.48406 0.01 0.254
9:52 am 09:52 Cloudy 77 25 75 23.9 94 94 S 8 13 29.98 1015 10 16.0934 0 0.0254
10:52 am 10:52 Cloudy 78 25.6 75 23.9 90 90 SW 10 17 29.99 1016 10 16.0934 0 0.0254
11:07 am 11:07 Cloudy 78 25.6 74 23.3 87 87 SW 10 17 30 1016 10 16.0934 0 0
11:22 am 11:22 Cloudy 79 26.1 75 23.9 88 88 SSW 12 19 30 1016 10 16.0934 0 0
11:38 am 11:38 Cloudy 79 26.1 74 23.3 85 85 SSW 10 17 30 1016 10 16.0934 0 0
11:52 am 11:52 Cloudy 80 26.7 74 23.3 82 82 SSW 8 13 29.98 1015 10 16.0934 0 0
12:52 pm 12:52 Cloudy 82 27.8 74 23.3 77 77 SSW 12 19 29.98 1015 10 16.0934 0 0.0254
1:52 pm 13:52 Cloudy 82 27.8 73 22.8 74 74 SSW 10 17 29.96 1015 10 16.0934 0 0
2:52 pm 14:52 Cloudy 82 27.8 74 23.3 77 77 S 13 20 29.96 1014 10 16.0934 0 0
3:52 pm 15:52 Cloudy 82 27.8 75 23.9 79 79 SSW 12 19 29.96 1014 10 16.0934 0 0.0254
4:52 pm 16:52 Cloudy 81 27.2 75 23.9 82 82 S 6 9 29.96 1014 10 16.0934 0 0
5:52 pm 17:52 Cloudy 80 26.7 76 24.4 87 87 S 6 9 29.96 1014 10 16.0934 0 0
6:52 pm 18:52 Cloudy 79 26.1 76 24.4 90 90 S 5 7 29.96 1015 10 16.0934 0 0
7:32 pm 19:32 Cloudy 79 26.1 76 24.4 90 90 S 3 6 29.97 1015 10 16.0934 0 0
7:34 pm 19:34 Cloudy 79 26.1 76 24.4 90 90 S 3 6 29.97 1015 10 16.0934 0 0
7:39 pm 19:39 Cloudy 79 26.1 76 24.4 90 90 S 3 6 29.97 1015 10 16.0934 0 0
7:43 pm 19:43 Cloudy 79 26.1 76 24.4 90 90 Calm 29.97 1015 10 16.0934 0 0
7:45 pm 19:45 Cloudy 79 26.1 76 24.4 90 90 Calm 29.97 1015 10 16.0934 0 0
7:52 pm 19:52 Cloudy 78 25.6 76 24.4 93 93 Calm 29.95 1014 10 16.0934 0 0
8:35 pm 20:35 Cloudy 79 26.1 76 24.4 90 90 S 7 11 29.97 1015 10 16.0934 0 0
8:39 pm 20:39 Cloudy 79 26.1 76 24.4 90 90 S 6 9 29.97 1015 10 16.0934 0 0
8:41 pm 20:41 Cloudy 79 26.1 76 24.4 90 90 S 7 11 29.97 1015 10 16.0934 0 0
8:52 pm 20:52 Mostly Cloudy 78 25.6 76 24.4 93 93 S 8 13 29.96 1014 10 16.0934 0 0
9:52 pm 21:52 Cloudy 78 25.6 75 23.9 90 90 S 10 17 29.97 1015 10 16.0934 0 0
10:52 pm 22:52 Cloudy 78 25.6 75 23.9 90 90 S 8 13 29.97 1015 10 16.0934 0 0
11:15 pm 23:15 Cloudy 77 25 75 23.9 94 94 S 8 13 29.97 1015 10 16.0934 0 0
11:52 pm 23:52 Cloudy 76 24.4 75 23.9 97 97 S 6 9 29.96 1015 10 16.0934 0.05 1.27

Powered by AerisWeather